This is the latest recevied weather packets stored in our database for station/object KF7ROW. If no packets are shown the sender has not sent any weather packets the latest 10 day(s).
| Time | Temp. | Humidity | Pressure | Rain* | Wind** | Luminosity | Snow |
|---|---|---|---|---|---|---|---|
| 1777322484 | 11.67° C | 84% | 1023.9 hPa | 0 mm | - | 186 W/m² | - |
| 1777322181 | 11.67° C | 84% | 1023.7 hPa | 0 mm | - | 179 W/m² | - |
| 1777321878 | 11.67° C | 82% | 1023.6 hPa | 0 mm | - | 141 W/m² | - |
| 1777321575 | 12.22° C | 83% | 1023.5 hPa | 0 mm | - | 107 W/m² | - |
| 1777321272 | 11.67° C | 83% | 1023.7 hPa | 0 mm | - | 141 W/m² | - |
| 1777320969 | 11.67° C | 84% | 1023.7 hPa | 0 mm | - | 218 W/m² | - |
| 1777320667 | 11.67° C | 83% | 1023.8 hPa | 0 mm | - | 256 W/m² | - |
| 1777320364 | 11.67° C | 84% | 1023.7 hPa | 0 mm | - | 266 W/m² | - |
| 1777320060 | 11.67° C | 82% | 1023.8 hPa | 0 mm | - | 229 W/m² | - |
| 1777319757 | 11.67° C | 84% | 1023.7 hPa | 0 mm | - | 200 W/m² | - |
| 1777319454 | 11.67° C | 84% | 1023.7 hPa | 0 mm | - | 182 W/m² | - |
| 1777319151 | 11.67° C | 83% | 1023.9 hPa | 0 mm | - | 176 W/m² | - |
| 1777318848 | 11.67° C | 83% | 1023.9 hPa | 0 mm | - | 181 W/m² | - |
| 1777318545 | 11.67° C | 83% | 1023.7 hPa | 0 mm | - | 168 W/m² | - |
| 1777318242 | 11.67° C | 82% | 1023.6 hPa | 0 mm | - | 198 W/m² | - |
| 1777317938 | 11.67° C | 81% | 1023.7 hPa | 0 mm | - | 302 W/m² | - |
| 1777317635 | 11.67° C | 80% | 1023.7 hPa | 0 mm | - | 320 W/m² | - |
| 1777317333 | 11.67° C | 81% | 1023.8 hPa | 0 mm | - | 289 W/m² | - |
| 1777317027 | 11.67° C | 81% | 1023.8 hPa | 0 mm | - | 227 W/m² | - |
| 1777316726 | 11.67° C | 82% | 1023.6 hPa | 0 mm | - | 200 W/m² | - |
| 1777316421 | 11.11° C | 82% | 1023.9 hPa | 0 mm | - | 173 W/m² | - |
| 1777316119 | 11.67° C | 81% | 1023.6 hPa | 0 mm | - | 162 W/m² | - |
| 1777315817 | 11.67° C | 81% | 1023.7 hPa | 0 mm | - | 161 W/m² | - |
| 1777315516 | 11.67° C | 80% | 1023.8 hPa | 0 mm | - | 159 W/m² | - |
| 1777315213 | 11.67° C | 81% | 1023.8 hPa | 0 mm | - | 156 W/m² | - |
* Rain latest hour (hover to see other rain measurements)
** Current wind speed in m/s (hover to see current wind gust speed)